[[{"header":{"parameterUnit":"m.s-1","parameterCategory":1,"la1":30.2991,"la2":30.254,"lo1":-89.0895,"lo2":-89.0444,"dy":0.0017,"dx":0.0017,"nx":28,"ny":28,"refTime":"2024-04-30T09:00:00:Z","depth":0,"parameterNumber":2,"parameterNumberName":"U-component_of_WINDS"},"data":[0,0,0,0,0,0,0,0,0,0,0,0,0,0,0,0,0,0,0,0,0,0,0,0,0,0,0,0,0,0,0,0,0,0,0,0,0,0,0,0,0,0,0,0,0,0,0,0,0,0,0,0,0,0,0,0,0,0,1.7462,1.7462,0,1.7425,1.7424,1.7424,1.7358,1.7357,1.7356,1.7355,1.7315,1.7316,1.7316,0,0,0,0,0,0,0,0,0,0,0,0,0,1.7473,1.7473,1.7462,1.7462,1.7461,1.7425,1.7424,1.7424,1.7359,1.7357,1.7356,1.7354,1.7315,1.7315,1.7316,0,0,0,0,0,0,0,0,0,0,0,0,0,1.7455,1.7473,1.7462,1.7424,1.742,1.7425,1.7424,1.7424,1.7359,1.7357,1.7355,1.7353,1.7315,1.7315,1.7316,1.7354,0,0,1.7316,1.7316,0,0,0,0,0,0,0,0,1.7456,1.7455,1.743,1.7427,1.7423,1.7394,1.7414,1.74,1.7359,1.7382,1.7355,1.7353,1.7343,1.7341,1.7338,1.7352,1.735,1.7316,1.7316,1.7316,1.7316,0,0,0,0,0,0,0,1.7458,1.7456,1.7447,1.743,1.7425,1.7408,1.7403,1.7411,1.7374,1.738,1.7375,1.7372,1.7341,1.7338,1.7337,1.735,1.7316,1.7316,1.7316,1.7316,1.739,1.7392,0,0,0,0,0,0,1.7465,1.7458,1.7448,1.7446,1.7435,1.7409,1.7404,1.7405,1.7373,1.7367,1.7373,1.7369,1.7339,1.7336,1.7335,1.7375,1.7316,1.7316,1.7317,1.7388,1.739,1.7392,0,0,0,0,0,0,1.7465,1.7465,1.745,1.7451,1.7447,1.7411,1.7413,1.7406,1.7403,1.7368,1.7361,1.7378,1.7337,1.7335,1.7349,1.7373,1.7317,1.7317,1.7386,1.7389,1.7391,1.7458,0,0,0,0,0,0,1.7466,1.7465,1.748,1.7451,1.7448,1.7466,1.7414,1.7406,1.7403,1.7397,1.737,1.7364,1.7335,1.7349,1.7349,1.7372,1.7317,1.7383,1.7387,1.739,1.7453,1.7463,1.7471,0,0,0,0,0,1.7467,1.7501,1.7482,1.7481,1.7466,1.7468,1.7465,1.7432,1.7406,1.742,1.7397,1.7365,1.7371,1.7351,1.7351,1.7374,1.7382,1.7386,1.739,1.745,1.7461,1.747,0,0,0,0,0,0,1.7534,1.7497,1.7475,1.7501,1.7488,1.7456,1.7473,1.7445,1.7439,1.7433,1.7392,1.7386,1.7405,1.7391,1.737,1.7408,1.7371,1.7375,1.7416,1.7427,1.7435,1.7438,1.7317,0,0,0,0,0,1.7552,1.7557,1.7524,1.755,1.7545,1.751,1.751,1.7485,1.747,1.7464,1.7442,1.7428,1.7426,1.7426,1.7422,1.7451,1.7443,1.7467,1.7475,1.7483,1.7486,1.7498,1.7507,1.7406,1.7406,1.7406,0,0,1.7589,1.7569,1.7575,1.7563,1.755,1.7555,1.7506,1.7514,1.7517,1.7465,1.7476,1.746,1.7441,1.7462,1.747,1.7451,1.7512,1.7488,1.7494,1.7494,1.7503,1.7512,1.7521,1.7409,1.7408,1.7408,0,0,1.7658,1.7645,1.7664,1.7652,1.7633,1.7609,1.7614,1.7586,1.7573,1.7584,1.7544,1.7546,1.7545,1.7532,1.7526,1.7588,1.7557,1.7588,1.7632,1.7644,1.7652,1.7659,1.7679,1.7687,1.7592,1.7592,1.7592,0,1.7707,1.7714,1.7678,1.7687,1.7682,1.7635,1.7653,1.7643,1.7623,1.762,1.7599,1.7594,1.7578,1.7594,1.7609,1.7606,1.7608,1.7591,1.7654,1.766,1.7666,1.7684,1.7692,1.7596,1.7596,1.7595,1.7595,0,1.7773,1.7778,1.7795,1.7777,1.7774,1.7788,1.7753,1.7754,1.7729,1.7707,1.7718,1.7697,1.7687,1.7689,1.7665,1.7701,1.7689,1.7662,1.7623,1.768,1.7696,1.7704,1.7601,1.76,1.7599,1.7598,0,0,1.7884,1.7845,1.7852,1.7842,1.7816,1.7819,1.783,1.782,1.7821,1.7808,1.7815,1.7814,1.7787,1.7779,1.7753,1.7764,1.7811,1.7734,1.7733,1.7747,1.7846,1.7866,1.7875,1.7791,1.7792,1.7793,1.7847,0,1.7947,1.7964,1.7931,1.7955,1.7958,1.7912,1.7921,1.7905,1.7885,1.7883,1.786,1.7859,1.7825,1.782,1.7828,1.7804,1.783,1.78,1.7795,1.7795,1.78,1.7884,1.7906,1.7958,1.7854,1.7855,1.7855,0,1.8023,1.8013,1.8038,1.8008,1.8008,1.8017,1.8004,1.8004,1.7985,1.7969,1.7959,1.7928,1.7935,1.7899,1.7906,1.7886,1.7881,1.7869,1.787,1.7867,1.7828,1.7882,1.7974,1.7981,1.7866,1.7865,1.7864,0,1.8099,1.8093,1.8106,1.8099,1.8066,1.8072,1.8059,1.8037,1.8033,1.8021,1.8018,1.8007,1.8001,1.7993,1.7959,1.7936,1.7969,1.7931,1.7954,1.7955,1.7963,1.7962,1.8053,1.7963,1.7963,1.7963,1.7963,0,1.8171,1.8187,1.8139,1.8147,1.8163,1.8124,1.8141,1.8122,1.8103,1.8105,1.8066,1.8068,1.8024,1.8021,1.7995,1.8003,1.8001,1.7987,1.7979,1.799,1.7991,1.7985,1.798,1.7965,1.7964,1.7964,1.7964,0,1.8259,1.8227,1.8238,1.8205,1.8197,1.821,1.8181,1.8186,1.8163,1.8166,1.8164,1.8127,1.8122,1.8087,1.8074,1.8056,1.8073,1.8059,1.808,1.8075,1.8099,1.8096,1.8188,1.8197,1.8103,1.8104,1.8105,0,1.8306,1.8317,1.8286,1.8284,1.8272,1.8271,1.8266,1.8228,1.8224,1.8201,1.8208,1.82,1.819,1.8183,1.8154,1.8143,1.8127,1.816,1.8125,1.8134,1.8125,1.8124,1.8124,1.8167,1.8169,1.817,1.817,0,1.8393,1.8377,1.8371,1.836,1.8355,1.8345,1.8331,1.8332,1.8289,1.8287,1.8281,1.8274,1.8259,1.825,1.8234,1.8218,1.8186,1.8182,1.8186,1.8196,1.8206,1.8199,1.8098,1.8179,1.8179,1.8178,1.8177,1.8177,1.846,1.8467,1.8445,1.844,1.8426,1.8414,1.8416,1.8393,1.8387,1.8373,1.835,1.8347,1.8324,1.8299,1.8285,1.8281,1.8263,1.827,1.8271,1.8273,1.8277,1.8209,1.8278,1.8277,1.8277,1.8277,1.8277,0,1.8543,1.8527,1.8522,1.8505,1.85,1.8472,1.8455,1.8452,1.845,1.8432,1.8423,1.8415,1.8405,1.8375,1.8362,1.8364,1.8349,1.8362,1.836,1.8356,1.8295,1.8292,1.8374,1.8374,1.8374,1.8374,1.8374,1.8374,1.8586,1.8595,1.8576,1.8577,1.856,1.8556,1.8549,1.8537,1.8522,1.8515,1.8506,1.8487,1.8463,1.8448,1.8437,1.8428,1.8424,1.8441,1.8427,1.837,1.8361,1.8352,1.8349,1.8441,1.8441,1.8488,1.8489,1.8489]},{"header":{"parameterUnit":"m.s-1","parameterCategory":1,"la1":30.2991,"la2":30.254,"lo1":-89.0895,"lo2":-89.0444,"dy":0.0017,"dx":0.0017,"nx":28,"ny":28,"refTime":"2024-04-30T09:00:00:Z","depth":0,"parameterNumber":3,"parameterNumberName":"V-component_of_WINDS"},"data":[0,0,0,0,0,0,0,0,0,0,0,0,0,0,0,0,0,0,0,0,0,0,0,0,0,0,0,0,0,0,0,0,0,0,0,0,0,0,0,0,0,0,0,0,0,0,0,0,0,0,0,0,0,0,0,0,0,0,2.2445,2.2447,0,2.2659,2.2661,2.2664,2.2679,2.2676,2.2674,2.2672,2.2891,2.2899,2.2907,0,0,0,0,0,0,0,0,0,0,0,0,0,2.2049,2.2056,2.2445,2.2447,2.245,2.2658,2.2661,2.2664,2.2679,2.2676,2.2673,2.2671,2.2889,2.2898,2.2908,0,0,0,0,0,0,0,0,0,0,0,0,0,2.2237,2.2058,2.2444,2.2483,2.2488,2.2658,2.2661,2.2665,2.268,2.2676,2.2673,2.2669,2.2885,2.2897,2.2909,2.3055,0,0,2.2946,2.2951,0,0,0,0,0,0,0,0,2.2227,2.2252,2.2474,2.248,2.2487,2.2638,2.2602,2.2796,2.2681,2.2607,2.2672,2.2668,2.281,2.2828,2.2876,2.3065,2.3075,2.2947,2.2954,2.296,2.2963,0,0,0,0,0,0,0,2.2214,2.2243,2.2529,2.2477,2.2485,2.2489,2.2512,2.2639,2.2726,2.2613,2.2615,2.264,2.2813,2.2864,2.2881,2.3078,2.2947,2.2957,2.2965,2.297,2.3397,2.3401,0,0,0,0,0,0,2.2193,2.2232,2.2523,2.2536,2.2345,2.2499,2.2525,2.2593,2.2725,2.2741,2.2643,2.264,2.2845,2.2867,2.2889,2.3068,2.2959,2.2971,2.2978,2.3393,2.3398,2.3402,0,0,0,0,0,0,2.2185,2.2219,2.2514,2.2384,2.2422,2.251,2.2587,2.2599,2.2651,2.2747,2.2762,2.2679,2.2843,2.2872,2.3013,2.3076,2.2976,2.2987,2.3388,2.3394,2.34,2.3428,0,0,0,0,0,0,2.2173,2.2216,2.2272,2.2386,2.2429,2.2635,2.2591,2.2606,2.2672,2.267,2.2786,2.2801,2.2843,2.2995,2.3025,2.3091,2.2997,2.3383,2.3391,2.3398,2.3422,2.3434,2.3445,0,0,0,0,0,2.2159,2.2272,2.2275,2.231,2.2502,2.2639,2.2663,2.2709,2.2677,2.2734,2.2796,2.2798,2.3064,2.301,2.3044,2.3114,2.3379,2.3389,2.3397,2.3417,2.3432,2.3445,0,0,0,0,0,0,2.2164,2.2288,2.2293,2.2445,2.2531,2.2641,2.2715,2.2724,2.2821,2.2815,2.2867,2.2893,2.3033,2.3088,2.3025,2.3261,2.3218,2.3235,2.3221,2.3236,2.3247,2.3232,2.3007,0,0,0,0,0,2.2183,2.2284,2.2386,2.2512,2.2554,2.2627,2.2688,2.2716,2.2807,2.2844,2.2915,2.3004,2.3107,2.3175,2.3276,2.3429,2.3455,2.3494,2.3506,2.3515,2.3529,2.3613,2.3632,2.3433,2.3432,2.3432,0,0,2.2224,2.2303,2.2364,2.2515,2.2584,2.2688,2.2658,2.2768,2.2845,2.2861,2.2998,2.3054,2.3156,2.3304,2.3373,2.3354,2.3589,2.3527,2.3533,2.3542,2.3625,2.3644,2.366,2.3439,2.3438,2.3437,0,0,2.235,2.242,2.2532,2.2602,2.2708,2.2756,2.2782,2.2891,2.2928,2.3067,2.308,2.3173,2.335,2.3422,2.3482,2.3634,2.3639,2.3665,2.3726,2.3808,2.3824,2.3838,2.3892,2.3911,2.3679,2.3679,2.3679,0,2.2387,2.2543,2.2588,2.2699,2.2764,2.2782,2.2896,2.2962,2.3095,2.314,2.3116,2.3339,2.3409,2.3574,2.3611,2.3659,2.3691,2.3653,2.3818,2.3833,2.3846,2.3899,2.3919,2.3681,2.3681,2.3681,2.368,0,2.2583,2.2691,2.2768,2.2896,2.297,2.3082,2.3144,2.3213,2.3234,2.3284,2.3424,2.3509,2.3627,2.3668,2.3689,2.3836,2.3821,2.3807,2.3764,2.3867,2.3917,2.3937,2.3685,2.3684,2.3683,2.3683,0,0,2.272,2.287,2.2898,2.2956,2.3073,2.3158,2.3269,2.3384,2.3443,2.3534,2.3628,2.3778,2.3765,2.3833,2.3863,2.3935,2.405,2.3913,2.3916,2.3935,2.4216,2.4225,2.4248,2.4053,2.4057,2.4061,2.4207,0,2.2859,2.3058,2.3102,2.3273,2.3373,2.3391,2.3488,2.3571,2.362,2.3712,2.3766,2.3871,2.3847,2.3888,2.396,2.402,2.4107,2.401,2.4142,2.4146,2.4116,2.4274,2.4285,2.4419,2.4227,2.423,2.4233,0,2.3048,2.3143,2.3325,2.3428,2.3472,2.3558,2.3667,2.3754,2.3848,2.3878,2.3953,2.3975,2.4092,2.4043,2.4204,2.4137,2.4194,2.4231,2.4238,2.4252,2.4196,2.4293,2.4463,2.4483,2.4264,2.4261,2.4259,0,2.313,2.3303,2.3434,2.3483,2.3607,2.3667,2.3721,2.3811,2.3877,2.3972,2.4015,2.4122,2.4181,2.4263,2.4313,2.4272,2.447,2.4425,2.4498,2.4497,2.454,2.4536,2.4722,2.4575,2.4575,2.4575,2.4574,0,2.3281,2.3391,2.3472,2.3552,2.3676,2.3725,2.3846,2.39,2.398,2.4071,2.4093,2.4178,2.4238,2.4332,2.4371,2.4499,2.4525,2.4553,2.4562,2.4551,2.4548,2.4589,2.4581,2.458,2.4579,2.4578,2.4577,0,2.3393,2.3451,2.3595,2.37,2.3729,2.3816,2.3906,2.3985,2.4033,2.4148,2.4178,2.4255,2.4366,2.4424,2.4563,2.4589,2.4732,2.4736,2.4701,2.4704,2.4775,2.4767,2.4993,2.5026,2.4857,2.4859,2.486,0,2.3486,2.3571,2.3685,2.3748,2.3803,2.3904,2.3971,2.4021,2.409,2.4203,2.4268,2.438,2.4472,2.4649,2.4717,2.4823,2.483,2.4901,2.4846,2.4832,2.4831,2.4825,2.4834,2.4911,2.4913,2.4914,2.4915,0,2.3644,2.3669,2.3765,2.3871,2.395,2.4036,2.4121,2.4171,2.4235,2.4312,2.4425,2.4497,2.4638,2.4749,2.486,2.4916,2.4927,2.4932,2.4955,2.4945,2.4921,2.4935,2.4728,2.4927,2.4926,2.4925,2.4924,2.4924,2.375,2.3826,2.3918,2.4024,2.4093,2.4172,2.4251,2.4309,2.4404,2.4523,2.4547,2.4667,2.4758,2.4908,2.4967,2.5061,2.5047,2.5079,2.5088,2.5095,2.5098,2.4905,2.5082,2.5082,2.5081,2.5081,2.5081,0,2.391,2.3969,2.4066,2.4184,2.4267,2.4269,2.4363,2.4432,2.4538,2.4621,2.4711,2.4841,2.4949,2.5025,2.5134,2.5195,2.5203,2.5222,2.5218,2.5231,2.5105,2.5075,2.5214,2.5214,2.5214,2.5214,2.5214,2.5214,2.4003,2.4132,2.4167,2.433,2.4389,2.4506,2.456,2.4632,2.4699,2.4843,2.4932,2.4981,2.5061,2.5176,2.5275,2.5294,2.5334,2.5353,2.5373,2.5254,2.524,2.5227,2.5198,2.5361,2.5361,2.5491,2.5492,2.5493]}]]